Lid_Strength_Index
6 9 10 8 7 7 8 9 10 8 7 9 8 8 7 6 6 7 6 6 6 7 6 5 4 4 4 4 3 0 0 0 0 1 1 1 1 0 0 -0 -1 -1 -1 -1
7 10 7 7 6 8 8 9 9 8 8 9 8 9 7 7 6 6 6 6 5 4 3 3 3 5 5 4 2 0 0 0 1 1 1 1 1 0 0 -0 -1 -1 -1 -1
9 8 6 7 8 9 9 10 9 9 8 8 9 10 9 7 6 5 5 5 5 4 4 3 2 2 3 2 1 0 1 0 0 -0 0 1 1 1 1 1 0 -0 -1 -1
8 6 7 8 9 8 11 7 8 9 9 12 8 14 9 8 7 6 6 5 5 4 4 3 2 1 1 1 1 -0 -0 0 0 -0 1 1 2 2 1 1 0 -0 -1 -0
10 8 8 9 9 7 9 6 8 8 9 10 10 12 10 7 9 7 6 5 4 4 4 4 3 2 1 1 0 0 0 0 0 0 0 1 1 1 1 1 0 0 -0 -1
8 6 7 7 6 6 6 8 8 8 9 13 11 11 10 9 8 7 6 5 4 4 3 3 2 2 1 1 1 0 1 1 0 1 1 1 1 1 1 1 1 1 0 -0
10 9 6 6 8 7 8 10 16 16 15 14 9 11 10 7 7 6 5 5 4 3 3 3 3 2 1 1 1 1 1 2 1 1 1 1 1 1 1 1 1 1 1 0
15 16 9 6 8 10 10 11 14 18 16 13 9 12 10 6 5 5 5 4 4 4 3 3 2 2 2 2 2 1 2 2 2 1 1 1 1 1 1 0 1 0 0 0
14 13 7 7 6 7 11 12 8 11 10 13 11 9 7 6 6 5 5 5 5 5 4 3 3 2 2 2 2 2 2 2 2 1 1 1 1 0 1 1 0 1 0 0
11 14 8 7 6 7 8 7 13 13 17 16 12 11 11 8 7 6 6 6 7 6 5 5 4 3 2 3 2 2 2 2 1 1 1 1 1 1 0 0 0 0 -0 -0
10 13 11 8 10 11 10 11 10 11 11 14 15 12 8 7 7 7 6 7 7 6 6 5 4 4 3 3 3 2 2 2 2 1 1 1 1 0 0 0 0 -0 -0 -0
9 13 17 12 8 7 8 10 10 13 15 12 12 12 8 8 7 7 8 7 7 6 6 5 5 4 4 3 3 2 2 2 1 1 1 1 1 1 1 1 0 -0 0 -0
10 14 18 17 12 10 11 10 9 10 10 13 15 12 8 8 8 8 8 7 7 6 6 5 4 4 3 3 2 2 1 1 1 1 1 1 1 1 1 1 -0 -0 -0 -0
9 13 15 18 14 11 13 12 10 11 15 13 12 11 10 10 10 9 8 7 6 6 5 4 4 4 3 2 2 2 1 1 1 1 1 1 1 0 1 0 0 1 1 1
12 15 14 13 13 11 11 11 10 12 11 13 10 11 9 9 9 9 7 7 7 6 5 5 4 3 3 2 2 2 1 1 1 2 2 2 1 1 1 2 2 2 2 3
10 15 13 15 12 10 11 10 9 10 10 10 9 10 7 7 8 8 8 7 7 6 5 4 4 3 4 4 3 3 3 2 2 2 3 2 3 3 3 3 3 3 3 3
12 13 15 17 12 12 16 11 10 9 9 9 12 9 7 9 9 8 8 7 6 6 5 5 5 5 4 4 3 3 3 3 3 3 3 3 3 3 3 3 4 4 4 3
12 13 14 16 14 21 12 7 8 9 9 8 8 8 8 8 7 6 6 6 6 6 5 5 6 6 6 4 5 5 5 5 5 4 4 4 4 4 4 4 4 4 4 4
10 12 16 18 18 15 11 10 10 11 11 7 7 7 7 7 7 8 5 5 7 7 7 7 6 6 6 6 5 6 6 5 5 5 5 5 5 5 6 6 5 5 5 5
10 10 14 16 19 19 14 10 7 7 15 7 7 8 8 7 12 10 6 5 6 7 7 8 7 7 6 6 5 5 5 5 6 6 6 6 6 6 6 6 6 5 5 6
14 14 16 16 18 15 11 8 7 16 13 7 6 7 7 8 7 6 4 5 4 5 7 7 8 8 6 5 5 6 6 7 7 7 6 6 6 6 6 6 5 5 6 6
15 16 16 15 17 19 11 9 13 10 7 6 6 6 7 6 6 6 8 8 7 8 7 7 7 7 7 6 6 7 7 7 7 6 6 6 6 6 6 6 5 7 8 8
15 13 14 14 14 11 9 9 6 6 6 7 6 5 5 8 9 9 10 10 10 9 8 7 8 8 7 7 6 7 7 6 7 7 7 7 6 6 6 6 7 8 9 9
11 9 12 12 13 12 10 8 7 6 6 7 7 6 7 9 10 11 11 11 10 9 7 7 7 8 8 7 6 7 6 7 7 7 7 6 6 7 7 7 9 9 10 10
10 9 13 13 12 10 10 9 9 8 9 10 9 10 11 11 11 10 10 9 9 9 8 7 7 7 6 7 7 7 8 8 7 7 7 7 7 7 8 9 10 10 11 11
8 10 12 13 12 11 12 10 8 8 9 9 10 11 10 11 11 11 10 10 9 8 7 7 6 6 7 8 8 8 8 9 8 8 8 9 8 8 9 10 11 13 12 13